Tracking 35030 objects as of 11-Aug-2026
HD Live streaming from Space Station
objects crossing your sky now

COSMOS 57 DEB


COSMOS 57 DEB is no longer on orbit


NORAD ID: 1124
Int'l Code: 1965-012AC
Launch date: February 22, 1965
Source: Commonwealth of Independent States (former USSR) (CIS)
Launch site: TYURATAM MISSILE AND SPACE COMPLEX (TTMTR)
Decay date: 1965-03-02

Note: This is SATELLITE DEBRIS
Your satellite tracking list
Your tracking list is empty




NASA's NSSDC Master Catalog

Two Line Element Set (TLE):
1 01124U 65012 AC 65056.98230312  .00954227 +24988-2 +00000-0 0  9994
2 01124 064.9991 286.5616 0129642 049.1521 311.9646 16.11415956000591
Source of the keplerian elements: AFSPC